User: anonymous   Login
Location: Unspecified
(0.0000°N, 0.0000°E)
Time: 19:46:09
(UTC+00:00)
Language:

ELEKTRO-L - Orbit

View from above orbital plane
View from above orbital plane
View from above satellite
View from above satellite

Ground track
Ground track

The orbit data is extracted from the following two-line orbital elements,

1 37344U 11001A   16119.93577344 -.00000100  00000-0  00000+0 0  9995
2 37344   1.6118  79.4942 0003663 190.0569   0.4350  1.00268113 19355
Epoch (UTC): 28 April 2016 22:27:30
Eccentricity: 0.0003663
inclination: 1.6118°
perigee height: 35772 km
apogee height: 35802 km
right ascension of ascending node: 79.4942°
argument of perigee: 190.0569°
revolutions per day: 1.00268113
mean anomaly at epoch: 0.4350°
orbit number at epoch: 1935

The dashed part of the orbit path shows where the satellite is in the earth's shadow,  

DLR